Hourly Data Report for September 20, 2017

All times are specified in Local Standard Time (LST). Add 1 hour to adjust for Daylight Saving Time where and when it is observed.

ALGONQUIN PARK EAST GATE
ONTARIO

45°32'00.000" N
78°16'00.000" W
397.00 m
6080192
71581
TNK

Download Data

Hourly Data (September 2017)
Hourly Data Report for September 20, 2017
Temp Definition
°C
Dew Point Temp Definition
°C
Rel Hum Definition
%
Wind Dir Definition
10's deg

Wind Spd Definition
km/h
Visibility Definition
km
Stn Press Definition
kPa
Hmdx Definition


Wind Chill Definition


Weather Definition


TIME
00:00 16.9 15.3 91   0   97.12     LegendNANA
01:00 16.2 14.9 92 LegendMM LegendMM   97.11     LegendNANA
02:00 16.6 15.4 92   0   97.09     LegendNANA
03:00 17.0 15.9 93 LegendMM LegendMM   97.09     LegendNANA
04:00 17.2 16.0 93 11 2   97.09     LegendNANA
05:00 17.0 15.9 93 0 1   97.10     LegendNANA
06:00 17.0 15.9 93 0 1   97.18     LegendNANA
07:00 16.9 15.8 93 0 1   97.21     LegendNANA
08:00 17.6 16.1 91 0 1   97.24     LegendNANA
09:00 18.2 16.2 89 13 5   97.26     LegendNANA
10:00 19.3 16.8 86 LegendMM LegendMM   97.27     LegendNANA
11:00 21.4 17.5 78 LegendMM LegendMM   97.23 27   LegendNANA
12:00 22.8 17.0 70 11 2   97.15 28   LegendNANA
13:00 23.6 16.6 65 12 7   97.08 29   LegendNANA
14:00 23.6 17.0 66 6 2   97.03 29   LegendNANA
15:00 24.6 16.4 61 14 8   97.02 29   LegendNANA
16:00 24.0 17.0 65 6 1   97.05 29   LegendNANA
17:00 23.2 17.3 70 8 3   97.05 29   LegendNANA
18:00 20.3 17.5 84   0   97.10 26   LegendNANA
19:00 18.7 16.7 88   0   97.11     LegendNANA
20:00 17.6 16.0 90   0   97.14     LegendNANA
21:00 16.9 15.4 91   0   97.13     LegendNANA
22:00 15.8 14.4 91   0   97.14     LegendNANA
23:00 15.2 13.9 92   0   97.19     LegendNANA

Notes on Data Quality.

Legend

  • E = Estimated
  • M = Missing
  • NA = Not Available
  • ‡ = Partner data that is not subject to review by the National Climate Archives
Date modified: